Regional Weather Roundup
Issued by NWS

Home | Current Version | Previous Version | Graphics & Text | Print | Product List | Glossary On
Versions: 1 2 3 4 5 6 7 8 9 10 11 12 13 14 15 16 17 18 19 20 21 22 23 24 25 26 27 28 29 30 31 32 33 34 35 36 37 38 39 40 41 42 43 44 45 46 47 48 49 50
000
ASUS45 KABQ 291710
RWRNM
NEW MEXICO REGIONAL WEATHER ROUNDUP
NATIONAL WEATHER SERVICE ALBUQUERQUE NM
1100 AM MDT FRI MAY 29 2015

NOTE: "FAIR" MEANS FEW OR NO CLOUDS BELOW 12,000 FEET AGL WITH NO
       SIGNIFICANT WEATHER OR OBSTRUCTIONS TO VISION.

      THIS PRODUCT IS RELEASED AS TWO VERSIONS.  ONE VERSION NEAR
      THE TOP OF THE HOUR CONTAINING PRELIMINARY DATA FROM ALBUQUERQUE
      AND OTHER STATIONS.  A FINAL VERSION WITH ADDITIONAL DATA IS
      ISSUED ABOUT 10 MINUTES AFTER THE HOUR.

NMZ501-503-504-510>518-291800-
NORTHWEST PLATEAU/NORTHCENTRAL MOUNTAINS

CITY           SKY/WX    TMP DP  RH WIND       PRES   REMARKS
FARMINGTON     SUNNY     68  40  35 W5        30.20S
LOS ALAMOS     MOSUNNY   62  32  32 NE8       30.27S
SANTA FE       MOSUNNY   69  32  25 CALM      30.21S
TAOS           SUNNY     63  30  29 CALM      30.25F
ANGEL FIRE     FAIR      58  30  34 W13G21    30.30R

$$
NMZ402-403-502-505>509-291800-
WESTCENTRAL MOUNTAINS/SOUTHWEST MOUNTAINS

CITY           SKY/WX    TMP DP  RH WIND       PRES   REMARKS
GALLUP         MOSUNNY   69  33  26 SE3       30.26S
GRANTS         CLOUDY    69  31  24 N6        30.26S
SILVER CITY      N/A     81  19  10 NW12G20   30.19R

$$
NMZ407-409-411-412-291800-
SOUTHERN DESERTS

CITY           SKY/WX    TMP DP  RH WIND       PRES   REMARKS
LORDSBURG      FAIR      81  27  13 NW9G18    30.11S
DEMING         SUNNY     83  22  10 CALM      30.09F
LAS CRUCES     SUNNY     84  27  12 N3        30.10S
HOLLOMAN AFB   SUNNY     86  29  13 NW6       30.04S
ALAMOGORDO     SUNNY     82  27  13 N5        30.07S
T OR C         SUNNY     81  30  15 NE7       30.12S

$$
NMZ519>523-291800-
CENTRAL VALLEYS/CENTRAL HIGHLANDS

CITY           SKY/WX    TMP DP  RH WIND       PRES   REMARKS
ALBUQUERQUE    PTSUNNY   73  36  25 N7        30.18S
DOUBLE EAGLE   PTSUNNY   72  39  30 VRB6      30.21R
MORIARTY ARPT  FAIR      71  33  24 NW6       30.21S
CLINES CORNERS MOSUNNY   70  33  25 W10G17    30.23R
BELEN          FAIR      74  35  24 E3        30.17F
SOCORRO        FAIR      78  32  18 N7        30.13F

$$
NMZ524>526-539-540-291800-
SOUTHCENTRAL MOUNTAINS

CITY           SKY/WX    TMP DP  RH WIND       PRES   REMARKS
RUIDOSO        MOSUNNY   75  28  17 NE7       30.24S

$$
NMZ527>531-291800-
NORTHEAST HIGHLANDS/NORTHEAST PLAINS

CITY           SKY/WX    TMP DP  RH WIND       PRES   REMARKS
LAS VEGAS      SUNNY     67  42  40 VRB5      30.21S
RATON          SUNNY     67  41  38 E6        30.17S
CLAYTON        SUNNY     69  49  48 N15       30.15R

$$
NMZ532>537-291800-
EASTCENTRAL PLAINS

CITY           SKY/WX    TMP DP  RH WIND       PRES   REMARKS
TUCUMCARI      SUNNY     73  52  47 MISG      30.09S
CANNON AFB     SUNNY     71  55  56 VRB1      30.09S
CLOVIS AIRPORT SUNNY     73  52  46 N5        30.09R

$$
NMZ028-029-538-291800-
SOUTHEAST PLAINS

CITY           SKY/WX    TMP DP  RH WIND       PRES   REMARKS
ROSWELL        SUNNY     75  52  44 VRB7      30.06S
ARTESIA        SUNNY     75  54  46 N7G14     30.06F
CARLSBAD       SUNNY     77  54  44 N13       30.03F
HOBBS          SUNNY     75  57  53 N6        30.05F


$$


USA.gov is the U.S. government's official web portal to all federal, state and local government web resources and services.